When you browse on this site, cookies collect data to enhance your experience and personalize the content and advertising you see.
Visit our Privacy Policy to learn more. By continuing to use the site, you agree to this use of cookies and data.
  • In Österreich
  • Länderverzeichnis
  • Für 7 Tage
  • Wassertemperatur
  • Wetterkarte
  • News
  • Widgets
  • user-avatar
    Anmelden

    Stündliche Wetter Zakopane

    Heute, 3 April, Freitag

    Zeit Temperatur Niederschläge Wind Luftdruck Luftfeuchtigkeit
    00:00 -4°C° 0 mm 2 m/S 677 mmHg 71%
    01:00 -4°C° 0 mm 2 m/S 677 mmHg 68%
    02:00 -4°C° 0 mm 2 m/S 677 mmHg 67%
    03:00 -4°C° 0 mm 2 m/S 677 mmHg 66%
    04:00 -3°C° 0 mm 2 m/S 677 mmHg 66%
    05:00 -2°C° 0 mm 2 m/S 677 mmHg 63%
    06:00 -1°C° 0 mm 2 m/S 678 mmHg 60%
    07:00 +2°C° 0 mm 2 m/S 679 mmHg 56%
    08:00 +3°C° 0 mm 2 m/S 679 mmHg 54%
    09:00 +4°C° 0 mm 3 m/S 679 mmHg 51%
    10:00 +5°C° 0 mm 3 m/S 680 mmHg 49%
    11:00 +7°C° 0 mm 3 m/S 680 mmHg 50%
    12:00 +7°C° 0 mm 3 m/S 680 mmHg 51%
    13:00 +7°C° 0 mm 3 m/S 681 mmHg 52%
    14:00 +7°C° 0.1 mm 3 m/S 681 mmHg 56%
    15:00 +5°C° 0.1 mm 3 m/S 681 mmHg 60%
    16:00 +6°C° 0.1 mm 2 m/S 681 mmHg 64%
    17:00 +4°C° 0.1 mm 2 m/S 681 mmHg 73%
    18:00 +3°C° 0.1 mm 1 m/S 681 mmHg 82%
    19:00 +2°C° 0.1 mm 1 m/S 681 mmHg 91%
    20:00 +1°C° 0.1 mm 1 m/S 681 mmHg 91%
    21:00 +1°C° 0.1 mm 1 m/S 682 mmHg 92%
    22:00 +1°C° 0.1 mm 1 m/S 682 mmHg 93%
    23:00 +1°C° 0 mm 1 m/S 683 mmHg 92%

    Morgen, 4 April, Samstag

    Zeit Temperatur Niederschläge Wind Luftdruck Luftfeuchtigkeit
    00:00 0°C° 0 mm 1 m/S 683 mmHg 92%
    01:00 -1°C° 0 mm 0 m/S 683 mmHg 92%
    02:00 -1°C° 0 mm 0 m/S 683 mmHg 89%
    03:00 -2°C° 0 mm 0 m/S 684 mmHg 87%
    04:00 -2°C° 0 mm 0 m/S 684 mmHg 84%
    05:00 -1°C° 0 mm 0 m/S 685 mmHg 79%
    06:00 0°C° 0 mm 0 m/S 685 mmHg 74%
    07:00 +2°C° 0 mm 1 m/S 686 mmHg 68%
    08:00 +4°C° 0 mm 1 m/S 687 mmHg 64%
    09:00 +5°C° 0 mm 1 m/S 687 mmHg 59%
    10:00 +5°C° 0 mm 2 m/S 688 mmHg 54%
    11:00 +6°C° 0 mm 2 m/S 688 mmHg 52%
    12:00 +7°C° 0 mm 2 m/S 688 mmHg 50%
    13:00 +7°C° 0 mm 2 m/S 689 mmHg 48%
    14:00 +7°C° 0 mm 2 m/S 689 mmHg 49%
    15:00 +7°C° 0 mm 2 m/S 688 mmHg 51%
    16:00 +6°C° 0 mm 2 m/S 688 mmHg 53%
    17:00 +4°C° 0 mm 2 m/S 688 mmHg 61%
    18:00 +3°C° 0 mm 2 m/S 689 mmHg 69%
    19:00 +2°C° 0 mm 1 m/S 689 mmHg 77%
    20:00 +1°C° 0 mm 1 m/S 689 mmHg 80%
    21:00 +1°C° 0 mm 1 m/S 689 mmHg 82%
    22:00 0°C° 0 mm 1 m/S 690 mmHg 84%
    23:00 0°C° 0 mm 1 m/S 690 mmHg 84%

    übermorgen, 5 April, Sonntag

    Zeit Temperatur Niederschläge Wind Luftdruck Luftfeuchtigkeit
    00:00 0°C° 0 mm 1 m/S 690 mmHg 84%
    01:00 0°C° 0 mm 1 m/S 691 mmHg 83%
    02:00 0°C° 0 mm 1 m/S 691 mmHg 83%
    03:00 0°C° 0 mm 1 m/S 691 mmHg 83%
    04:00 0°C° 0 mm 1 m/S 691 mmHg 82%
    05:00 +1°C° 0 mm 1 m/S 691 mmHg 77%
    06:00 +2°C° 0 mm 1 m/S 692 mmHg 72%
    07:00 +3°C° 0 mm 1 m/S 692 mmHg 67%
    08:00 +5°C° 0 mm 1 m/S 693 mmHg 59%
    09:00 +6°C° 0 mm 2 m/S 693 mmHg 52%
    10:00 +8°C° 0 mm 2 m/S 694 mmHg 44%
    11:00 +8°C° 0 mm 2 m/S 694 mmHg 43%
    12:00 +9°C° 0 mm 2 m/S 694 mmHg 42%
    13:00 +10°C° 0 mm 2 m/S 694 mmHg 40%
    14:00 +10°C° 0 mm 2 m/S 693 mmHg 43%
    15:00 +9°C° 0 mm 2 m/S 693 mmHg 46%
    16:00 +9°C° 0 mm 2 m/S 692 mmHg 49%
    17:00 +7°C° 0 mm 2 m/S 692 mmHg 59%
    18:00 +5°C° 0 mm 2 m/S 692 mmHg 69%
    19:00 +4°C° 0 mm 1 m/S 691 mmHg 78%
    20:00 +3°C° 0 mm 1 m/S 692 mmHg 80%
    21:00 +3°C° 0 mm 1 m/S 692 mmHg 81%
    22:00 +2°C° 0 mm 1 m/S 692 mmHg 83%
    23:00 +2°C° 0 mm 1 m/S 692 mmHg 81%

    6 April, Montag

    Zeit Temperatur Niederschläge Wind Luftdruck Luftfeuchtigkeit
    00:00 +2°C° 0 mm 1 m/S 692 mmHg 79%
    01:00 +2°C° 0 mm 1 m/S 692 mmHg 77%
    02:00 +2°C° 0 mm 1 m/S 692 mmHg 76%
    03:00 +1°C° 0 mm 1 m/S 692 mmHg 76%
    04:00 +1°C° 0 mm 1 m/S 692 mmHg 76%
    05:00 +3°C° 0 mm 1 m/S 692 mmHg 72%
    06:00 +4°C° 0 mm 1 m/S 693 mmHg 68%
    07:00 +5°C° 0 mm 1 m/S 693 mmHg 64%
    08:00 +6°C° 0 mm 2 m/S 694 mmHg 58%
    09:00 +8°C° 0 mm 2 m/S 694 mmHg 52%
    10:00 +10°C° 0 mm 2 m/S 695 mmHg 46%
    11:00 +12°C° 0 mm 2 m/S 695 mmHg 45%
    12:00 +12°C° 0 mm 2 m/S 695 mmHg 43%
    13:00 +13°C° 0 mm 2 m/S 695 mmHg 41%
    14:00 +13°C° 0 mm 2 m/S 695 mmHg 42%
    15:00 +12°C° 0 mm 2 m/S 694 mmHg 43%
    16:00 +12°C° 0 mm 2 m/S 694 mmHg 44%
    17:00 +9°C° 0 mm 2 m/S 694 mmHg 51%
    18:00 +7°C° 0 mm 2 m/S 693 mmHg 59%
    19:00 +4°C° 0 mm 2 m/S 693 mmHg 66%
    20:00 +3°C° 0 mm 2 m/S 693 mmHg 66%
    21:00 +3°C° 0 mm 2 m/S 693 mmHg 67%
    22:00 +2°C° 0 mm 2 m/S 693 mmHg 67%
    23:00 +2°C° 0 mm 2 m/S 693 mmHg 66%

    7 April, Dienstag

    Zeit Temperatur Niederschläge Wind Luftdruck Luftfeuchtigkeit
    00:00 +2°C° 0 mm 1 m/S 693 mmHg 66%
    01:00 +2°C° 0 mm 1 m/S 693 mmHg 65%
    02:00 +2°C° 0 mm 1 m/S 693 mmHg 65%
    03:00 +2°C° 0 mm 1 m/S 693 mmHg 65%
    04:00 +1°C° 0 mm 1 m/S 694 mmHg 65%
    05:00 +3°C° 0 mm 1 m/S 694 mmHg 61%
    06:00 +4°C° 0 mm 1 m/S 695 mmHg 56%
    07:00 +6°C° 0 mm 1 m/S 695 mmHg 52%
    08:00 +8°C° 0 mm 1 m/S 696 mmHg 45%
    09:00 +10°C° 0 mm 1 m/S 696 mmHg 39%
    10:00 +13°C° 0 mm 1 m/S 697 mmHg 33%
    11:00 +13°C° 0 mm 1 m/S 697 mmHg 33%
    12:00 +14°C° 0 mm 1 m/S 697 mmHg 32%
    13:00 +15°C° 0 mm 1 m/S 697 mmHg 32%
    14:00 +14°C° 0 mm 1 m/S 696 mmHg 33%
    15:00 +14°C° 0 mm 1 m/S 696 mmHg 34%
    16:00 +13°C° 0 mm 1 m/S 695 mmHg 36%
    17:00 +11°C° 0 mm 1 m/S 695 mmHg 45%
    18:00 +9°C° 0 mm 1 m/S 694 mmHg 54%
    19:00 +7°C° 0 mm 1 m/S 694 mmHg 63%
    20:00 +6°C° 0 mm 1 m/S 694 mmHg 67%
    21:00 +5°C° 0 mm 0 m/S 694 mmHg 70%
    22:00 +4°C° 0 mm 0 m/S 694 mmHg 74%
    23:00 +4°C° 0 mm 0 m/S 694 mmHg 74%

    8 April, Mittwoch

    Zeit Temperatur Niederschläge Wind Luftdruck Luftfeuchtigkeit
    00:00 +3°C° 0 mm 0 m/S 693 mmHg 75%
    01:00 +3°C° 0 mm 0 m/S 693 mmHg 76%
    02:00 +3°C° 0 mm 0 m/S 693 mmHg 75%
    03:00 +3°C° 0 mm 0 m/S 693 mmHg 75%
    04:00 +2°C° 0 mm 0 m/S 693 mmHg 75%
    05:00 +4°C° 0 mm 0 m/S 693 mmHg 70%
    06:00 +5°C° 0 mm 0 m/S 694 mmHg 66%
    07:00 +6°C° 0 mm 0 m/S 694 mmHg 61%
    08:00 +9°C° 0 mm 1 m/S 694 mmHg 55%
    09:00 +11°C° 0 mm 1 m/S 694 mmHg 48%
    10:00 +13°C° 0 mm 1 m/S 695 mmHg 41%
    11:00 +13°C° 0 mm 2 m/S 695 mmHg 40%
    12:00 +14°C° 0 mm 2 m/S 694 mmHg 39%
    13:00 +15°C° 0 mm 2 m/S 694 mmHg 37%
    14:00 +14°C° 0 mm 2 m/S 694 mmHg 39%
    15:00 +14°C° 0 mm 2 m/S 693 mmHg 42%
    16:00 +13°C° 0 mm 2 m/S 693 mmHg 44%
    17:00 +10°C° 0 mm 2 m/S 692 mmHg 51%
    18:00 +9°C° 0 mm 1 m/S 692 mmHg 59%
    19:00 +7°C° 0 mm 1 m/S 691 mmHg 66%
    20:00 +6°C° 0 mm 1 m/S 691 mmHg 66%
    21:00 +6°C° 0 mm 1 m/S 691 mmHg 66%
    22:00 +5°C° 0 mm 1 m/S 691 mmHg 65%
    23:00 +4°C° 0 mm 0 m/S 691 mmHg 66%
    Mehr zeigen